Retour au catalogue

STARLINK-37867

ActifCommunicationsSSO
NORAD 69661·PAYLOAD·🇺🇸 United States

Lancé Jun 21, 2026 depuis Vandenberg Space Force Base

Loading…

Prochains Passages (prochaines 24 heures)

TLE

FraisSource: CelesTrak SupGP

Époque: Sep 14, 2026, 23:28 UTC

1 69661C 26143N   26257.97826389  .00067538  00000+0  20991-2 0  2576
2 69661  97.2835 301.2057 0001095 106.5262 246.9297 15.33366652    19

Suivez STARLINK-37867 en temps réel avec AllMySat

Download on the App Store